QPF
0.01 0.01 0.01 0.02 0.02 0.03 0.02 0.02 0.02 0.01 0.00 0.00 0.00 0.00 0.00 0.00 0.00 0.00 0.00 0.00 0.00 0.00 0.00 0.00 0.00 0.00 0.00 0.01 0.01 0.01 0.01 0.01 0.01 0.01 0.01 0.01 0.02 0.01 0.01 0.02 0.03 0.04 0.06 0.07
0.00 0.00 0.00 0.01 0.01 0.01 0.02 0.02 0.02 0.01 0.01 0.01 0.01 0.01 0.00 0.00 0.00 0.00 0.00 0.00 0.00 0.00 0.00 0.00 0.00 0.00 0.01 0.01 0.01 0.01 0.01 0.01 0.02 0.02 0.01 0.01 0.01 0.01 0.01 0.02 0.03 0.04 0.05 0.06
0.00 0.00 0.00 0.00 0.00 0.01 0.01 0.01 0.01 0.01 0.00 0.01 0.01 0.01 0.00 0.00 0.00 0.00 0.00 0.00 0.00 0.01 0.01 0.01 0.01 0.01 0.01 0.01 0.01 0.01 0.01 0.02 0.02 0.02 0.02 0.02 0.02 0.02 0.01 0.01 0.02 0.03 0.06 0.06
0.01 0.00 0.00 0.00 0.01 0.01 0.01 0.01 0.01 0.01 0.01 0.01 0.01 0.01 0.00 0.00 0.00 0.00 0.00 0.00 0.00 0.01 0.01 0.01 0.01 0.01 0.01 0.01 0.00 0.01 0.01 0.01 0.01 0.02 0.02 0.03 0.02 0.02 0.02 0.01 0.02 0.02 0.06 0.09
0.01 0.00 0.00 0.01 0.01 0.01 0.01 0.01 0.01 0.01 0.01 0.01 0.01 0.01 0.00 0.00 0.00 0.00 0.00 0.00 0.00 0.01 0.01 0.01 0.01 0.01 0.02 0.01 0.01 0.01 0.01 0.01 0.01 0.01 0.02 0.02 0.03 0.03 0.02 0.02 0.03 0.03 0.04 0.07
0.00 0.00 0.00 0.00 0.00 0.01 0.01 0.01 0.01 0.01 0.01 0.02 0.00 0.00 0.00 0.00 0.00 0.00 0.00 0.00 0.00 0.00 0.00 0.00 0.01 0.01 0.02 0.02 0.01 0.01 0.01 0.01 0.01 0.02 0.02 0.03 0.03 0.03 0.03 0.03 0.03 0.03 0.03 0.05
0.00 0.00 0.00 0.00 0.00 0.00 0.01 0.01 0.02 0.02 0.02 0.01 0.00 0.00 0.01 0.01 0.01 0.01 0.00 0.00 0.00 0.00 0.00 0.00 0.00 0.01 0.01 0.02 0.02 0.01 0.01 0.01 0.02 0.03 0.04 0.04 0.03 0.04 0.04 0.04 0.04 0.04 0.04 0.04
0.00 0.00 0.00 0.00 0.00 0.00 0.00 0.01 0.02 0.02 0.01 0.01 0.01 0.01 0.01 0.01 0.01 0.01 0.01 0.00 0.00 0.00 0.00 0.00 0.01 0.01 0.01 0.02 0.01 0.01 0.02 0.02 0.02 0.02 0.04 0.05 0.05 0.05 0.05 0.05 0.06 0.06 0.05 0.04
0.01 0.00 0.00 0.00 0.00 0.00 0.00 0.01 0.01 0.02 0.01 0.01 0.01 0.01 0.01 0.00 0.00 0.00 0.01 0.01 0.01 0.01 0.00 0.01 0.01 0.01 0.02 0.02 0.02 0.02 0.02 0.02 0.03 0.02 0.03 0.04 0.05 0.06 0.05 0.05 0.06 0.09 0.08 0.07
0.01 0.00 0.00 0.00 0.00 0.00 0.00 0.01 0.01 0.02 0.03 0.02 0.02 0.01 0.01 0.01 0.00 0.00 0.00 0.01 0.01 0.01 0.01 0.01 0.01 0.01 0.02 0.02 0.03 0.03 0.02 0.03 0.03 0.03 0.03 0.03 0.04 0.05 0.05 0.06 0.05 0.05 0.07 0.09
0.01 0.01 0.00 0.00 0.00 0.00 0.00 0.00 0.01 0.01 0.02 0.02 0.02 0.02 0.02 0.02 0.01 0.01 0.01 0.01 0.01 0.01 0.01 0.01 0.01 0.01 0.02 0.03 0.03 0.03 0.03 0.04 0.04 0.03 0.04 0.03 0.04 0.04 0.05 0.05 0.06 0.06 0.05 0.06
0.01 0.02 0.01 0.00 0.00 0.00 0.01 0.00 0.01 0.01 0.01 0.01 0.02 0.01 0.01 0.01 0.01 0.01 0.01 0.01 0.01 0.01 0.01 0.01 0.01 0.01 0.01 0.02 0.03 0.03 0.03 0.04 0.04 0.04 0.04 0.04 0.04 0.04 0.05 0.05 0.05 0.05 0.05 0.04
0.01 0.02 0.02 0.01 0.00 0.00 0.00 0.00 0.00 0.01 0.01 0.01 0.01 0.01 0.01 0.00 0.01 0.01 0.01 0.01 0.01 0.01 0.01 0.01 0.01 0.01 0.02 0.02 0.02 0.02 0.03 0.03 0.04 0.04 0.04 0.04 0.04 0.04 0.04 0.04 0.04 0.04 0.03 0.03
0.02 0.02 0.02 0.02 0.02 0.01 0.01 0.00 0.00 0.01 0.02 0.01 0.01 0.01 0.00 0.00 0.01 0.01 0.01 0.01 0.01 0.01 0.01 0.01 0.01 0.01 0.02 0.02 0.02 0.02 0.02 0.02 0.03 0.04 0.05 0.05 0.04 0.03 0.03 0.03 0.03 0.03 0.03 0.03
0.02 0.02 0.01 0.01 0.01 0.01 0.01 0.00 0.00 0.01 0.01 0.01 0.00 0.00 0.00 0.01 0.01 0.01 0.01 0.01 0.01 0.01 0.01 0.01 0.01 0.01 0.02 0.02 0.02 0.03 0.03 0.03 0.03 0.04 0.04 0.04 0.04 0.03 0.03 0.02 0.02 0.03 0.03 0.03
0.02 0.03 0.02 0.01 0.01 0.00 0.00 0.00 0.00 0.00 0.00 0.00 0.00 0.00 0.00 0.01 0.01 0.01 0.01 0.01 0.01 0.01 0.01 0.01 0.01 0.01 0.01 0.02 0.02 0.02 0.03 0.03 0.03 0.04 0.04 0.04 0.04 0.03 0.03 0.03 0.03 0.02 0.02 0.03
0.02 0.03 0.03 0.02 0.01 0.02 0.01 0.00 0.00 0.00 0.00 0.00 0.00 0.01 0.00 0.00 0.01 0.01 0.01 0.01 0.01 0.01 0.01 0.01 0.01 0.01 0.01 0.02 0.02 0.02 0.02 0.02 0.02 0.02 0.04 0.04 0.04 0.04 0.03 0.03 0.03 0.03 0.02 0.02
0.02 0.03 0.05 0.03 0.02 0.03 0.01 0.00 0.00 0.00 0.00 0.00 0.01 0.01 0.01 0.01 0.01 0.01 0.01 0.01 0.01 0.01 0.01 0.01 0.01 0.01 0.01 0.01 0.01 0.02 0.01 0.01 0.02 0.02 0.02 0.03 0.03 0.03 0.04 0.03 0.03 0.03 0.02 0.02
0.01 0.03 0.06 0.06 0.04 0.02 0.00 0.00 0.00 0.01 0.01 0.01 0.01 0.01 0.01 0.01 0.01 0.01 0.01 0.01 0.01 0.01 0.01 0.01 0.01 0.01 0.01 0.01 0.01 0.01 0.01 0.01 0.01 0.01 0.01 0.02 0.02 0.02 0.02 0.03 0.03 0.03 0.02 0.02
0.01 0.02 0.06 0.07 0.06 0.03 0.01 0.00 0.00 0.01 0.01 0.01 0.01 0.01 0.01 0.01 0.01 0.01 0.01 0.01 0.01 0.01 0.01 0.01 0.01 0.01 0.01 0.01 0.01 0.01 0.01 0.01 0.01 0.01 0.01 0.01 0.01 0.02 0.02 0.02 0.02 0.02 0.02 0.02
0.01 0.03 0.05 0.05 0.05 0.02 0.01 0.00 0.01 0.02 0.02 0.01 0.01 0.01 0.01 0.01 0.02 0.01 0.01 0.01 0.01 0.01 0.01 0.01 0.01 0.01 0.01 0.01 0.00 0.00 0.00 0.01 0.01 0.00 0.00 0.01 0.01 0.01 0.01 0.01 0.01 0.01 0.02 0.01
0.01 0.02 0.03 0.04 0.06 0.03 0.01 0.01 0.02 0.02 0.01 0.01 0.00 0.00 0.01 0.01 0.01 0.01 0.01 0.01 0.01 0.01 0.01 0.01 0.01 0.01 0.01 0.01 0.00 0.00 0.01 0.01 0.00 0.00 0.01 0.01 0.01 0.01 0.01 0.01 0.01 0.01 0.01 0.01
0.01 0.01 0.02 0.03 0.03 0.02 0.02 0.02 0.02 0.02 0.01 0.01 0.01 0.01 0.01 0.01 0.01 0.01 0.01 0.01 0.01 0.01 0.01 0.01 0.01 0.01 0.01 0.01 0.01 0.01 0.01 0.01 0.01 0.01 0.01 0.01 0.01 0.01 0.01 0.01 0.01 0.01 0.01 0.01
0.01 0.01 0.01 0.02 0.01 0.01 0.01 0.01 0.02 0.02 0.02 0.02 0.01 0.01 0.01 0.01 0.01 0.01 0.01 0.01 0.01 0.01 0.01 0.01 0.00 0.00 0.00 0.00 0.00 0.01 0.01 0.01 0.01 0.01 0.01 0.01 0.02 0.02 0.02 0.02 0.02 0.02 0.02 0.02
0.01 0.01 0.01 0.01 0.01 0.01 0.01 0.01 0.01 0.01 0.01 0.02 0.02 0.02 0.03 0.03 0.02 0.02 0.02 0.01 0.01 0.01 0.00 0.00 0.00 0.00 0.01 0.01 0.01 0.01 0.01 0.01 0.01 0.01 0.02 0.02 0.02 0.02 0.02 0.02 0.02 0.02 0.02 0.02
0.00 0.00 0.01 0.01 0.01 0.01 0.01 0.01 0.01 0.01 0.02 0.02 0.02 0.03 0.03 0.03 0.02 0.02 0.02 0.01 0.01 0.01 0.01 0.01 0.01 0.01 0.01 0.01 0.01 0.01 0.01 0.01 0.01 0.01 0.01 0.02 0.02 0.02 0.02 0.02 0.02 0.02 0.02 0.02
MSLP
1019.66 1020.07 1020.39 1020.60 1020.74 1020.85 1021.02 1021.35 1021.94 1022.83 1024.02 1025.48 1027.11 1028.79 1030.39 1031.77 1032.86 1033.61 1034.04 1034.20 1034.19 1034.09 1034.00 1033.97 1034.01 1034.10 1034.21 1034.27 1034.24 1034.10 1033.83 1033.46 1033.03 1032.60 1032.21 1031.88 1031.61 1031.40 1031.20 1030.98 1030.70 1030.36 1029.96 1029.51
1019.89 1020.25 1020.52 1020.69 1020.79 1020.87 1021.03 1021.34 1021.89 1022.72 1023.83 1025.19 1026.71 1028.28 1029.80 1031.13 1032.22 1033.02 1033.55 1033.85 1033.98 1034.02 1034.03 1034.07 1034.13 1034.22 1034.29 1034.32 1034.27 1034.13 1033.90 1033.60 1033.27 1032.94 1032.64 1032.36 1032.12 1031.90 1031.66 1031.38 1031.05 1030.67 1030.26 1029.83
1020.06 1020.36 1020.56 1020.68 1020.73 1020.78 1020.90 1021.16 1021.65 1022.39 1023.39 1024.61 1025.99 1027.45 1028.87 1030.17 1031.28 1032.17 1032.84 1033.30 1033.62 1033.83 1033.98 1034.10 1034.21 1034.29 1034.34 1034.33 1034.27 1034.14 1033.95 1033.73 1033.50 1033.27 1033.05 1032.84 1032.62 1032.39 1032.11 1031.79 1031.42 1031.01 1030.58 1030.17
1020.20 1020.43 1020.58 1020.64 1020.65 1020.66 1020.74 1020.95 1021.36 1021.99 1022.86 1023.93 1025.16 1026.47 1027.79 1029.04 1030.17 1031.15 1031.95 1032.60 1033.12 1033.52 1033.82 1034.06 1034.22 1034.33 1034.37 1034.35 1034.28 1034.16 1034.01 1033.86 1033.71 1033.57 1033.42 1033.27 1033.08 1032.84 1032.54 1032.18 1031.77 1031.34 1030.92 1030.53
1020.33 1020.51 1020.60 1020.63 1020.62 1020.62 1020.67 1020.85 1021.19 1021.72 1022.45 1023.36 1024.41 1025.56 1026.75 1027.92 1029.04 1030.07 1030.99 1031.80 1032.50 1033.08 1033.55 1033.91 1034.17 1034.32 1034.39 1034.38 1034.31 1034.21 1034.11 1034.01 1033.92 1033.84 1033.75 1033.63 1033.46 1033.22 1032.90 1032.52 1032.10 1031.66 1031.25 1030.88
1020.46 1020.60 1020.67 1020.70 1020.70 1020.72 1020.80 1020.97 1021.27 1021.72 1022.33 1023.08 1023.94 1024.90 1025.92 1026.97 1028.02 1029.05 1030.03 1030.95 1031.79 1032.53 1033.15 1033.65 1034.01 1034.24 1034.37 1034.40 1034.36 1034.30 1034.23 1034.17 1034.12 1034.08 1034.02 1033.92 1033.75 1033.50 1033.18 1032.79 1032.37 1031.94 1031.55 1031.21
1020.57 1020.70 1020.79 1020.85 1020.91 1021.00 1021.13 1021.35 1021.65 1022.06 1022.56 1023.16 1023.85 1024.60 1025.43 1026.31 1027.23 1028.18 1029.15 1030.10 1031.02 1031.87 1032.62 1033.25 1033.73 1034.07 1034.28 1034.38 1034.41 1034.39 1034.36 1034.33 1034.30 1034.27 1034.21 1034.11 1033.93 1033.68 1033.36 1032.98 1032.57 1032.17 1031.81 1031.50
1020.66 1020.80 1020.93 1021.06 1021.21 1021.40 1021.64 1021.93 1022.28 1022.68 1023.11 1023.59 1024.10 1024.66 1025.27 1025.94 1026.68 1027.49 1028.37 1029.29 1030.22 1031.13 1031.97 1032.71 1033.31 1033.77 1034.09 1034.29 1034.40 1034.45 1034.46 1034.45 1034.44 1034.40 1034.33 1034.20 1034.02 1033.76 1033.44 1033.08 1032.71 1032.34 1032.01 1031.74
1020.68 1020.85 1021.04 1021.26 1021.53 1021.84 1022.20 1022.60 1023.01 1023.43 1023.83 1024.21 1024.58 1024.95 1025.34 1025.79 1026.32 1026.95 1027.68 1028.50 1029.39 1030.31 1031.20 1032.02 1032.74 1033.33 1033.78 1034.10 1034.31 1034.44 1034.50 1034.52 1034.50 1034.45 1034.35 1034.21 1034.00 1033.74 1033.44 1033.10 1032.76 1032.44 1032.16 1031.92
1020.64 1020.85 1021.10 1021.41 1021.78 1022.21 1022.68 1023.18 1023.66 1024.11 1024.50 1024.81 1025.07 1025.28 1025.48 1025.72 1026.04 1026.47 1027.03 1027.72 1028.53 1029.41 1030.32 1031.20 1032.02 1032.74 1033.33 1033.78 1034.11 1034.33 1034.45 1034.50 1034.48 1034.42 1034.29 1034.12 1033.90 1033.64 1033.35 1033.04 1032.74 1032.47 1032.23 1032.02
1020.56 1020.80 1021.10 1021.47 1021.91 1022.41 1022.96 1023.51 1024.04 1024.50 1024.87 1025.14 1025.31 1025.41 1025.48 1025.55 1025.70 1025.95 1026.36 1026.91 1027.62 1028.44 1029.35 1030.28 1031.18 1032.01 1032.72 1033.31 1033.76 1034.08 1034.27 1034.36 1034.36 1034.28 1034.14 1033.95 1033.71 1033.46 1033.18 1032.92 1032.66 1032.43 1032.23 1032.06
1020.50 1020.77 1021.09 1021.48 1021.93 1022.43 1022.97 1023.52 1024.03 1024.47 1024.81 1025.04 1025.16 1025.19 1025.18 1025.16 1025.19 1025.32 1025.61 1026.05 1026.67 1027.44 1028.33 1029.28 1030.24 1031.16 1031.99 1032.70 1033.27 1033.68 1033.95 1034.08 1034.10 1034.03 1033.88 1033.68 1033.45 1033.20 1032.96 1032.73 1032.52 1032.33 1032.17 1032.02
1020.56 1020.85 1021.16 1021.51 1021.89 1022.32 1022.76 1023.20 1023.62 1023.98 1024.26 1024.45 1024.54 1024.55 1024.51 1024.47 1024.46 1024.55 1024.77 1025.15 1025.71 1026.43 1027.29 1028.25 1029.25 1030.23 1031.15 1031.96 1032.62 1033.13 1033.47 1033.65 1033.70 1033.64 1033.51 1033.32 1033.11 1032.89 1032.68 1032.49 1032.32 1032.17 1032.04 1031.91
1020.83 1021.11 1021.38 1021.64 1021.89 1022.15 1022.40 1022.66 1022.90 1023.12 1023.30 1023.43 1023.50 1023.53 1023.52 1023.52 1023.54 1023.65 1023.87 1024.23 1024.76 1025.45 1026.28 1027.23 1028.24 1029.25 1030.23 1031.10 1031.84 1032.42 1032.82 1033.06 1033.15 1033.13 1033.02 1032.86 1032.68 1032.50 1032.34 1032.20 1032.07 1031.96 1031.85 1031.73
1021.33 1021.61 1021.81 1021.94 1022.00 1022.02 1022.02 1022.01 1022.02 1022.04 1022.08 1022.13 1022.19 1022.25 1022.32 1022.41 1022.53 1022.71 1022.98 1023.36 1023.88 1024.55 1025.35 1026.26 1027.25 1028.26 1029.24 1030.15 1030.93 1031.56 1032.02 1032.31 1032.45 1032.47 1032.41 1032.30 1032.17 1032.05 1031.94 1031.85 1031.78 1031.71 1031.62 1031.50
1022.06 1022.32 1022.44 1022.40 1022.24 1021.99 1021.68 1021.38 1021.11 1020.91 1020.79 1020.75 1020.80 1020.91 1021.07 1021.28 1021.52 1021.82 1022.17 1022.59 1023.12 1023.76 1024.52 1025.37 1026.31 1027.28 1028.23 1029.14 1029.93 1030.59 1031.09 1031.43 1031.62 1031.70 1031.70 1031.65 1031.58 1031.52 1031.48 1031.46 1031.44 1031.41 1031.35 1031.24
1022.88 1023.13 1023.15 1022.96 1022.57 1022.04 1021.44 1020.84 1020.30 1019.87 1019.59 1019.47 1019.51 1019.67 1019.94 1020.28 1020.66 1021.06 1021.50 1021.98 1022.52 1023.12 1023.82 1024.60 1025.45 1026.34 1027.25 1028.11 1028.89 1029.56 1030.08 1030.46 1030.71 1030.84 1030.90 1030.92 1030.93 1030.94 1030.98 1031.02 1031.06 1031.07 1031.04 1030.95
1023.60 1023.83 1023.77 1023.43 1022.86 1022.10 1021.25 1020.39 1019.62 1019.00 1018.59 1018.41 1018.45 1018.67 1019.03 1019.49 1019.99 1020.51 1021.03 1021.54 1022.07 1022.64 1023.25 1023.94 1024.69 1025.49 1026.31 1027.12 1027.87 1028.52 1029.06 1029.47 1029.76 1029.95 1030.07 1030.16 1030.24 1030.32 1030.42 1030.53 1030.63 1030.69 1030.70 1030.63
1024.01 1024.20 1024.08 1023.64 1022.93 1022.02 1020.99 1019.96 1019.04 1018.31 1017.82 1017.61 1017.66 1017.94 1018.39 1018.95 1019.55 1020.16 1020.73 1021.26 1021.77 1022.28 1022.81 1023.40 1024.04 1024.74 1025.47 1026.21 1026.91 1027.55 1028.09 1028.52 1028.84 1029.08 1029.25 1029.40 1029.53 1029.68 1029.84 1030.00 1030.15 1030.26 1030.30 1030.25
1023.89 1024.05 1023.89 1023.40 1022.63 1021.64 1020.55 1019.46 1018.48 1017.72 1017.22 1017.02 1017.11 1017.45 1017.98 1018.62 1019.29 1019.95 1020.55 1021.08 1021.56 1022.01 1022.46 1022.95 1023.49 1024.09 1024.74 1025.41 1026.07 1026.68 1027.21 1027.65 1028.00 1028.26 1028.47 1028.65 1028.83 1029.01 1029.21 1029.41 1029.60 1029.75 1029.82 1029.80
1023.16 1023.28 1023.09 1022.60 1021.85 1020.89 1019.84 1018.79 1017.86 1017.15 1016.71 1016.58 1016.73 1017.14 1017.72 1018.41 1019.13 1019.81 1020.41 1020.93 1021.37 1021.77 1022.15 1022.56 1023.02 1023.54 1024.12 1024.73 1025.34 1025.92 1026.44 1026.88 1027.24 1027.52 1027.74 1027.94 1028.13 1028.33 1028.54 1028.76 1028.96 1029.13 1029.22 1029.23
1021.80 1021.88 1021.71 1021.27 1020.60 1019.76 1018.84 1017.93 1017.14 1016.56 1016.24 1016.21 1016.44 1016.91 1017.54 1018.25 1018.98 1019.66 1020.26 1020.75 1021.16 1021.51 1021.84 1022.20 1022.60 1023.06 1023.58 1024.14 1024.72 1025.27 1025.77 1026.20 1026.55 1026.82 1027.04 1027.23 1027.41 1027.60 1027.80 1028.01 1028.21 1028.37 1028.48 1028.49
1019.96 1020.00 1019.85 1019.51 1018.98 1018.32 1017.61 1016.91 1016.34 1015.94 1015.78 1015.86 1016.18 1016.70 1017.35 1018.08 1018.79 1019.46 1020.03 1020.49 1020.88 1021.20 1021.50 1021.81 1022.18 1022.60 1023.08 1023.61 1024.15 1024.67 1025.14 1025.55 1025.87 1026.13 1026.33 1026.50 1026.65 1026.81 1026.98 1027.16 1027.33 1027.48 1027.57 1027.58
1017.84 1017.85 1017.75 1017.52 1017.18 1016.75 1016.28 1015.85 1015.52 1015.33 1015.34 1015.54 1015.94 1016.50 1017.15 1017.85 1018.54 1019.16 1019.70 1020.14 1020.50 1020.80 1021.08 1021.38 1021.72 1022.12 1022.57 1023.06 1023.56 1024.05 1024.49 1024.86 1025.16 1025.40 1025.57 1025.71 1025.83 1025.95 1026.07 1026.21 1026.34 1026.45 1026.51 1026.50
1015.68 1015.68 1015.65 1015.55 1015.41 1015.23 1015.03 1014.86 1014.78 1014.80 1014.97 1015.28 1015.74 1016.30 1016.94 1017.59 1018.23 1018.80 1019.29 1019.70 1020.03 1020.32 1020.60 1020.88 1021.21 1021.58 1022.00 1022.45 1022.91 1023.36 1023.76 1024.09 1024.36 1024.57 1024.71 1024.83 1024.92 1025.00 1025.09 1025.18 1025.27 1025.32 1025.34 1025.31
1013.72 1013.72 1013.76 1013.81 1013.87 1013.93 1013.99 1014.08 1014.21 1014.43 1014.73 1015.12 1015.60 1016.15 1016.74 1017.33 1017.89 1018.40 1018.84 1019.21 1019.52 1019.80 1020.06 1020.33 1020.64 1020.98 1021.36 1021.76 1022.17 1022.56 1022.91 1023.21 1023.45 1023.63 1023.76 1023.86 1023.94 1024.00 1024.07 1024.12 1024.16 1024.18 1024.15 1024.07
Thickness
5568 5556 5551 5553 5553 5554 5552 5549 5547 5552 5555 5550 5547 5550 5555 5555 5551 5548 5546 5545 5545 5546 5547 5547 5548 5548 5547 5547 5548 5548 5549 5550 5551 5551 5550 5551 5551 5552 5553 5555 5556 5558 5559 5560
5550 5547 5553 5553 5550 5547 5544 5540 5538 5542 5545 5541 5537 5542 5549 5549 5548 5545 5543 5541 5539 5538 5537 5538 5538 5537 5537 5537 5538 5538 5539 5540 5541 5541 5541 5542 5542 5541 5542 5544 5545 5546 5548 5549
5544 5545 5548 5545 5540 5538 5535 5532 5531 5530 5531 5530 5528 5534 5542 5545 5542 5541 5539 5537 5534 5532 5530 5529 5528 5528 5527 5527 5528 5530 5529 5530 5530 5531 5530 5530 5530 5530 5530 5532 5533 5535 5536 5537
5535 5537 5538 5534 5531 5528 5525 5527 5525 5522 5514 5510 5517 5517 5537 5534 5533 5533 5531 5527 5525 5525 5524 5522 5521 5519 5518 5519 5519 5519 5519 5519 5520 5520 5519 5520 5520 5520 5520 5521 5522 5523 5524 5525
5526 5527 5527 5524 5524 5521 5518 5519 5515 5511 5504 5497 5502 5500 5522 5520 5522 5525 5523 5520 5517 5516 5516 5515 5513 5511 5511 5509 5509 5508 5508 5509 5509 5509 5509 5508 5508 5508 5509 5510 5510 5511 5513 5513
5517 5518 5517 5516 5515 5512 5508 5505 5499 5488 5485 5491 5500 5492 5508 5508 5517 5520 5517 5513 5510 5507 5505 5505 5503 5501 5500 5498 5498 5497 5498 5497 5497 5497 5497 5497 5497 5497 5497 5498 5498 5499 5500 5501
5505 5507 5506 5506 5502 5500 5495 5488 5482 5479 5475 5486 5493 5488 5499 5511 5510 5510 5508 5503 5499 5495 5493 5492 5490 5490 5489 5488 5487 5486 5486 5485 5485 5485 5485 5485 5485 5485 5486 5487 5486 5486 5488 5489
5491 5495 5496 5494 5493 5487 5484 5482 5475 5471 5468 5473 5478 5478 5497 5501 5499 5498 5496 5491 5487 5484 5482 5481 5480 5479 5478 5478 5477 5476 5475 5474 5473 5473 5474 5474 5474 5474 5475 5475 5475 5475 5476 5477
5481 5485 5488 5486 5484 5482 5474 5467 5468 5456 5449 5448 5463 5469 5486 5491 5489 5485 5481 5477 5474 5472 5471 5469 5468 5467 5466 5466 5465 5464 5463 5462 5462 5462 5462 5462 5462 5462 5463 5463 5463 5463 5464 5465
5476 5471 5475 5474 5475 5472 5467 5458 5445 5445 5445 5445 5452 5455 5472 5483 5478 5472 5466 5463 5462 5461 5459 5458 5456 5455 5454 5454 5453 5452 5451 5450 5450 5450 5450 5450 5450 5450 5450 5450 5450 5450 5451 5452
5467 5459 5459 5458 5457 5458 5453 5448 5440 5430 5429 5430 5431 5456 5470 5471 5468 5461 5456 5453 5450 5448 5446 5444 5443 5442 5441 5440 5439 5438 5437 5437 5436 5436 5436 5437 5437 5437 5437 5438 5437 5438 5438 5439
5457 5447 5443 5448 5450 5448 5446 5443 5432 5428 5422 5414 5418 5446 5463 5456 5453 5448 5444 5442 5439 5436 5433 5431 5429 5428 5426 5425 5425 5424 5424 5423 5423 5423 5422 5423 5423 5423 5424 5424 5423 5423 5424 5425
5448 5437 5436 5446 5442 5432 5430 5429 5425 5419 5411 5403 5407 5439 5450 5440 5438 5435 5431 5428 5426 5423 5421 5418 5415 5414 5413 5411 5410 5409 5409 5410 5409 5409 5409 5409 5409 5410 5410 5410 5410 5410 5410 5410
5443 5427 5430 5440 5444 5430 5420 5418 5414 5409 5405 5402 5412 5432 5440 5432 5426 5422 5418 5415 5413 5411 5410 5407 5404 5401 5400 5398 5397 5396 5395 5395 5395 5395 5395 5396 5396 5396 5396 5396 5396 5396 5396 5396
5430 5421 5418 5423 5425 5418 5417 5416 5409 5405 5407 5405 5418 5420 5433 5427 5419 5415 5410 5406 5404 5402 5399 5396 5393 5390 5388 5386 5384 5383 5382 5382 5382 5381 5381 5382 5382 5382 5382 5382 5382 5382 5382 5382
5415 5412 5408 5410 5414 5407 5408 5415 5410 5407 5407 5405 5407 5413 5424 5413 5406 5402 5399 5397 5395 5393 5391 5387 5383 5380 5377 5375 5373 5372 5370 5369 5368 5368 5367 5367 5367 5367 5367 5367 5367 5367 5368 5368
5402 5399 5397 5402 5398 5397 5406 5418 5410 5403 5399 5398 5403 5415 5409 5401 5398 5394 5391 5387 5386 5385 5383 5379 5375 5371 5368 5365 5363 5360 5359 5357 5356 5355 5354 5353 5352 5352 5352 5352 5352 5353 5353 5353
5397 5391 5387 5385 5383 5394 5425 5412 5405 5399 5396 5390 5392 5396 5393 5391 5387 5382 5379 5377 5376 5375 5372 5369 5364 5361 5357 5354 5351 5349 5346 5344 5343 5342 5340 5339 5338 5337 5336 5336 5337 5337 5337 5337
5393 5387 5380 5376 5375 5388 5405 5400 5386 5384 5390 5385 5382 5384 5382 5376 5371 5373 5370 5365 5363 5360 5357 5354 5351 5347 5344 5341 5339 5336 5333 5332 5330 5329 5327 5326 5324 5323 5322 5321 5321 5321 5321 5321
5379 5376 5373 5368 5373 5383 5406 5388 5376 5375 5380 5380 5372 5371 5369 5363 5366 5373 5360 5352 5348 5345 5342 5339 5336 5333 5331 5328 5326 5324 5321 5319 5318 5316 5314 5312 5310 5309 5308 5307 5306 5305 5305 5306
5367 5361 5362 5362 5363 5378 5377 5368 5367 5373 5382 5371 5362 5360 5355 5350 5356 5352 5342 5338 5335 5332 5328 5325 5322 5320 5317 5314 5313 5311 5308 5306 5305 5303 5301 5299 5297 5295 5293 5292 5291 5290 5290 5290
5364 5356 5350 5350 5353 5371 5362 5353 5359 5367 5361 5355 5352 5348 5344 5342 5337 5332 5328 5325 5322 5318 5315 5311 5308 5305 5303 5300 5299 5297 5295 5293 5291 5289 5287 5284 5282 5280 5279 5277 5276 5275 5274 5273
5357 5359 5355 5355 5367 5364 5351 5353 5352 5348 5345 5343 5339 5336 5332 5329 5326 5322 5317 5312 5308 5305 5302 5298 5295 5292 5289 5286 5284 5282 5281 5278 5276 5274 5272 5269 5267 5265 5264 5262 5260 5259 5258 5258
5347 5342 5341 5339 5350 5350 5344 5340 5337 5333 5331 5330 5326 5323 5320 5317 5314 5310 5305 5301 5296 5292 5288 5285 5281 5278 5275 5271 5269 5267 5266 5264 5261 5259 5256 5254 5252 5250 5248 5247 5246 5245 5244 5243
5348 5334 5333 5335 5341 5338 5339 5333 5330 5325 5320 5316 5313 5310 5308 5305 5301 5297 5293 5288 5283 5280 5275 5271 5267 5264 5261 5258 5255 5253 5251 5249 5246 5244 5242 5239 5238 5235 5233 5232 5230 5229 5229 5228
5337 5333 5332 5344 5338 5328 5332 5325 5319 5314 5310 5306 5302 5299 5294 5290 5287 5283 5278 5274 5269 5265 5261 5257 5253 5250 5247 5244 5242 5239 5237 5234 5232 5230 5227 5225 5223 5221 5219 5217 5216 5215 5214 5215